Weather History for Falls City, NE

Change the Weather History Date:

Friday, November 15, 2013

  Actual Average Record
Temperature  
Mean Temperature 44 °F -  
Max Temperature 57 °F 53 °F 76 °F (1990)
Min Temperature 30 °F 31 °F 15 °F (1959)
Degree Days  
Heating Degree Days 22    
Moisture  
Dew Point 34 °F    
Average Humidity 70    
Maximum Humidity 88    
Minimum Humidity 45    
Precipitation  
Precipitation 0.00 in - - ()
Sea Level Pressure  
Sea Level Pressure 29.82 in    
Wind  
Wind Speed 8 mph (SSE)    
Max Wind Speed 15 mph    
Max Gust Speed -    
Visibility 10 miles    
Events      
Averages and records for this station are not official NWS values.
T = Trace of Precipitation, MM = Missing Value Source: NWS Daily Summary

Daily Weather History Graph

Daily Weather History Graph

Search for Another Location

Airport:

Trip Planner

Search our weather history database for the weather conditions in past years. The results will help you decide how hot, cold, wet, or windy it might be!

Date:

Astronomy

Nov. 15, 2013 Rise Set
Actual Time 7:08 AM CST 5:05 PM CST
Civil Twilight 6:38 AM CST 5:34 PM CST
Nautical Twilight 6:06 AM CST 6:07 PM CST
Astronomical Twilight 5:34 AM CST 6:39 PM CST
Moon 4:03 PM CST (11/15) 5:05 AM CST (11/15)
Length of Visible Light 10h 55m
Length of Day
9h 57m
Waxing Gibbous, 96% of the Moon is Illuminated
Nov 15
Waxing Gibbous
Nov 17
Full
Nov 25
Last Quarter
Dec 2
New
Dec 9
First Quarter

Hourly Weather History & Observations

Time (CST) Temp. Windchill Dew Point Humidity Pressure Visibility Wind Dir Wind Speed Gust Speed Precip Events Conditions
12:53 AM 37.9 °F 31.5 °F 28.9 °F 70% 29.93 in 10.0 mi SSW 9.2 mph - N/A   Clear
1:53 AM 36.0 °F 29.6 °F 28.9 °F 76% 29.93 in 10.0 mi SSW 8.1 mph - N/A   Clear
2:53 AM 36.0 °F 32.1 °F 28.0 °F 73% 29.92 in 10.0 mi South 4.6 mph - N/A   Clear
3:53 AM 32.0 °F 27.5 °F 27.0 °F 82% 29.91 in 10.0 mi SSE 4.6 mph - N/A   Clear
4:53 AM 30.9 °F 25.2 °F 27.0 °F 85% 29.91 in 10.0 mi SSE 5.8 mph - N/A   Clear
5:53 AM 30.0 °F 26.5 °F 27.0 °F 88% 29.92 in 10.0 mi SE 3.5 mph - N/A   Clear
6:53 AM 30.0 °F 25.2 °F 27.0 °F 88% 29.92 in 10.0 mi South 4.6 mph - N/A   Clear
7:53 AM 30.9 °F - 27.0 °F 85% 29.93 in 10.0 mi Calm Calm - N/A   Clear
8:53 AM 39.9 °F 35.1 °F 30.9 °F 70% 29.93 in 10.0 mi South 6.9 mph - N/A   Clear
9:53 AM 46.0 °F 41.9 °F 33.1 °F 61% 29.92 in 10.0 mi SSW 8.1 mph - N/A   Clear
10:53 AM 50.0 °F - 34.0 °F 54% 29.89 in 10.0 mi South 10.4 mph - N/A   Clear
11:53 AM 54.0 °F - 35.1 °F 49% 29.86 in 10.0 mi South 9.2 mph - N/A   Clear
12:53 PM 55.0 °F - 35.1 °F 47% 29.83 in 10.0 mi South 11.5 mph - N/A   Clear
1:53 PM 57.0 °F - 36.0 °F 45% 29.80 in 10.0 mi South 13.8 mph - N/A   Clear
2:53 PM 57.0 °F - 37.0 °F 47% 29.77 in 10.0 mi SSE 15.0 mph - N/A   Clear
3:53 PM 57.0 °F - 37.9 °F 49% 29.75 in 10.0 mi SSE 13.8 mph - N/A   Clear
4:53 PM 52.0 °F - 37.9 °F 59% 29.74 in 10.0 mi SSE 10.4 mph - N/A   Clear
5:53 PM 46.9 °F - 37.9 °F 71% 29.74 in 10.0 mi SSE 9.2 mph - N/A   Clear
6:53 PM 48.0 °F - 39.0 °F 71% 29.72 in 10.0 mi SE 10.4 mph - N/A   Clear
7:53 PM 44.1 °F 39.0 °F 37.9 °F 79% 29.71 in 10.0 mi SE 9.2 mph - N/A   Clear
8:53 PM 46.0 °F 41.9 °F 39.9 °F 79% 29.71 in 10.0 mi SE 8.1 mph - N/A   Clear
9:53 PM 48.0 °F - 42.1 °F 80% 29.69 in 10.0 mi SSE 8.1 mph - N/A   Clear
10:53 PM 48.0 °F - 43.0 °F 83% 29.68 in 10.0 mi SE 6.9 mph - N/A   Clear
11:53 PM 48.9 °F - 44.1 °F 83% 29.66 in 10.0 mi SSE 9.2 mph - N/A   Clear